Location: Kielce
(50.8833°N, 20.6167°E)
Time: 23:26:58
(UTC+02:00)

SR - Pass Details

Date: 29 April 2021
Orbit: 573 x 882 km, 66.7° (Epoch: 16 May)

Event Time Altitude Azimuth Distance (km) Brightness Sun altitude
Rises 04:32:36 0° 163° (SSE) 3,344 ? -6.7°
Reaches altitude 10° 04:35:46 10° 145° (SE) 2,461 ? -6.3°
Maximum altitude 04:39:27 18° 105° (ESE) 2,007 ? -5.8°
Drops below altitude 10° 04:43:14 10° 65° (ENE) 2,537 ? -5.3°
Sets 04:46:32 0° 47° (NE) 3,490 ? -4.8°
